Preview of NWS' New Version of Forecast
This preview is not operational and should not be used for support decisions.
Latest weather observations around

Monroe Regional Airport (KMLU)

Using English Units (Switch to International System of Units)
Date/ Time (CDT) Wind (mph) Vis. (mi) Weather Sky Cond. Temp (°F) Rel. Humidity Wind Chill (°F) Heat Index (°F) Pressure Precip. (in)
Air Dwpt 6 hour Altimeter (inHg) Sea level (inHg) 1 hr 3 hr 6 hr
Max Min
Jun 18 07:53 ESE 3 10 Cloudy OVC110 78 73     85%   80 30.09 30.08      
Jun 18 06:53 E 5 10 Mostly Cloudy BKN110 74 70     87%   75 30.08 30.07      
Jun 18 05:53 E 5 10 Clear CLR 73 70     90%   74 30.06 30.06      
Jun 18 04:53 Calm 10 Clear CLR 73 70     90%   74 30.05 30.05      
Jun 18 03:53 Calm 10 Clear CLR 72 70     93%   73 30.05 30.05      
Jun 18 02:53 Calm 10 Clear CLR 72 71     97%   73 30.05 30.05      
Jun 18 01:53 Calm 10 Clear CLR 74 72     94%   75 30.06 30.05      
Jun 18 00:53 Calm 10 Clear CLR 76 71     85%   77 30.07 30.07      
Jun 17 23:53 SSE 5 10 Clear CLR 78 71     79%   79 30.08 30.07      
Jun 17 22:53 7 10 Clear CLR 81 71     72%   85 30.08 30.08      
Jun 17 21:53 Calm 10 Clear CLR 80 73     79%   84 30.07 30.06      
Jun 17 20:53 SE 3 10 Mostly Cloudy BKN047 BKN060 82 71     69%   86 30.05 30.04      
Jun 17 19:53 Calm 10 Mostly Cloudy BKN080 BKN090 82 72     72%   87 30.03 30.03      
Jun 17 18:53 SSE 6 10 Cloudy BKN055 OVC065 83 72     70%   88 30.02 30.02     0
Jun 17 17:53 SSE 5 10 Mostly Clear FEW050 89 73     59%   97 30 29.99 0    
Jun 17 16:53 3 10 Light Rain SCT044 BKN055 BKN110 87 75     68%   97 30.01 30 0    
Jun 17 15:53 SE 5 10 Mostly Cloudy BKN055 89 74     61%   98 30.02 30.01      
Jun 17 14:53 SE 6 10 Mostly Cloudy BKN047 89 72     57%   96 30.02 30.02      
Jun 17 13:53 SSE 8 10 Mostly Cloudy FEW045 BKN060 BKN070 89 72     57%   96 30.04 30.03      
Jun 17 12:53 5 10 Mostly Cloudy BKN038 BKN048 90 74     59%   99 30.05 30.05      
Jun 17 11:53 SSE 10 10 Mostly Cloudy BKN036 88 74     63%   97 30.07 30.06      
Jun 17 11:22 6 10 Mostly Cloudy BKN030 BKN050 87 74     65%   95 30.07        
Jun 17 10:53 SSE 8 10 Cloudy BKN027 OVC050 86 74     67%   94 30.07 30.07      
Jun 17 09:53 SSE 7 6 Haze BKN025 85 74     70%   92 30.07 30.06      
Jun 17 08:53 3 10 Haze CLR 83 76     79%   91 30.07 30.06      
Jun 17 07:53 E 5 10 Fog/Mist CLR 79 75     88%   83 30.06 30.05      
Jun 17 06:53 Calm 6 Fog/Mist CLR 75 73     94%   77 30.04 30.03      
Jun 17 05:53 Calm 6 Fog/Mist CLR 73 72     96%   75 30.02 30.01      
Jun 17 04:53 Calm 10 Clear CLR 74 73     97%   76 30.01 30.01      
Jun 17 03:53 Calm 9 Clear CLR 73 72     96%   75 30 30      
Jun 17 02:53 Calm 10 Clear CLR 74 72     94%   75 30.01 30.01      
Jun 17 01:53 Calm 10 Clear CLR 74 73     97%   76 30.01 30.01      
Jun 17 00:53 Calm 10 Clear CLR 76 73     91%   77 30.02 30.01      
Jun 16 23:53 Calm 10 Clear CLR 76 73     91%   77 30.01 30      
Jun 16 22:53 Calm 10 Clear CLR 78 72     82%   79 30 29.99      
Jun 16 21:53 S 3 10 Partly Cloudy SCT050 79 72     79%   82 29.99 29.98      
Jun 16 20:53 S 8 10 Clear CLR 83 73     72%   89 29.97 29.97      
Jun 16 19:53 S 5 10 Clear CLR 83 75     77%   90 29.95 29.95      
Jun 16 18:53 S 5 10 Mostly Cloudy BKN050 85 73     68%   92 29.94 29.94      
Jun 16 17:53 ESE 3 10 Mostly Clear FEW080 FEW090 92 74     56%   102 29.94 29.93      
Jun 16 16:53 ESE 7 10 Mostly Cloudy BKN050 92 74     56%   102 29.95 29.94      
Jun 16 15:53 ENE 7 10 Mostly Clear FEW043 93 75     56%   105 29.95 29.94      
Jun 16 14:53 E 5 10 Mostly Cloudy SCT047 BKN060 92 73     54%   101 29.96 29.95      
Jun 16 13:53 5 10 Mostly Cloudy BKN040 BKN065 92 74     56%   102 29.97 29.96      
Jun 16 12:53 Calm 10 Mostly Cloudy BKN043 89 73     59%   97 29.99 29.98      
Jun 16 11:53 S 6 10 Mostly Cloudy BKN036 89 74     61%   98 30 30      
Jun 16 10:53 Calm 10 Mostly Cloudy BKN021 88 73     61%   96 30.01 30      
Jun 16 10:31 3 10 Mostly Cloudy BKN021 87 74     65%   95 30.01        
Jun 16 09:53 SSW 3 10 Clear CLR 85 76     75%   94 30.02 30.01      
Jun 16 08:53 Calm 10 Clear CLR 82 75     79%   89 30.02 30.01      
Jun 16 07:53 Calm 10 Clear CLR 79 74     85%   83 30.01 30.01      
Jun 16 06:53 Calm 6 Fog/Mist CLR 75 74     96%   77 30 29.99      
Jun 16 05:53 Calm 6 Fog/Mist CLR 73 72     96%   75 29.99 29.98      
Jun 16 04:53 Calm 10 Clear CLR 74 73     97%   76 29.98 29.97      
Jun 16 03:53 Calm 10 Clear CLR 75 73     94%   77 29.97 29.96      
Jun 16 02:53 Calm 10 Clear CLR 75 73     94%   77 29.97 29.96      
Jun 16 01:53 S 3 10 Clear CLR 77 73     88%   79 29.97 29.96      
Jun 16 00:53 S 6 10 Clear CLR 78 74     87%   80 29.98 29.97      
Jun 15 23:53 S 6 10 Clear CLR 79 74     85%   83 29.98 29.97      
Jun 15 22:53 Calm 10 Mostly Clear FEW048 81 74     79%   86 29.97 29.97      
Jun 15 21:53 ESE 3 10 Clear CLR 81 76     85%   87 29.95 29.95      
Jun 15 20:53 Calm 10 Clear CLR 83 75     77%   90 29.93 29.92      
Jun 15 19:53 Calm 10 Clear CLR 88 73     61%   96 29.93 29.92      
Jun 15 18:53 S 5 10 Clear CLR 90 72     56%   97 29.91 29.91      
Jun 15 17:53 5 10 Partly Cloudy SCT050 92 72     52%   100 29.92 29.91      
Jun 15 16:53 SSW 7 10 Partly Cloudy SCT047 91 72     54%   99 29.93 29.92      
Jun 15 15:53 S 5 10 Mostly Clear FEW047 92 73     54%   101 29.94 29.94      
Jun 15 14:53 Calm 10 Mostly Cloudy BKN047 BKN095 91 72     54%   99 29.96 29.95      
Jun 15 13:53 Calm 10 Clear CLR 92 72     52%   100 29.99 29.98      
Jun 15 12:53 SSE 6 10 Mostly Cloudy BKN050 89 73     59%   97 30.01 30      
Jun 15 11:53 ESE 6 10 Mostly Cloudy BKN033 89 74     61%   98 30.01 30.01      
Jun 15 10:53 Calm 10 Clear CLR 88 73     61%   96 30.02 30.02      
Jun 15 09:53 Calm 10 Clear CLR 85 74     70%   92 30.03 30.02      
Jun 15 08:53 W 5 10 Clear CLR 82 74     77%   88 30.03 30.03      
Jun 15 07:53 SSW 3 10 Clear CLR 77 74     90%   79 30.03 30.02      
May 14 15:53 WSW 7 10 Clear CLR 92 66     43%   95 29.95 29.94      
May 14 06:53 Calm 5 Fog/Mist CLR 69 69     100%     30.04 30.04      
May 13 02:53 S 3 10 Clear CLR 72 68     87%   73 30.03 30.02      
May 12 02:53 S 5 10 Clear CLR 70 65     84%     30.02 30.02      
May 11 16:53 SSW 10 10 Clear CLR 88 63     43%   89 29.98 29.97      
Jun 11 22:53 E 3 10 Clear   74 72     94%   75 30.02 30.01 0    
Jun 11 10:53 6 10 Partly Cloudy SCT050 83 70     65%   87 30.05 30.05      
Jun 11 01:53 S 3 10 Clear CLR 72 64     76%   72 30 29.99      
Jun 09 08:53 5 10 Clear CLR 73 61     66%   73 29.98 29.98      
Jun 09 04:53 Calm 10 Clear CLR 62 59     90%     29.93 29.93      
Jun 07 10:53 NE 17 10 Clear CLR 79 60     52%   79 29.93 29.92      
Jun 06 07:53 N 6 6 Light Rain and Fog/Mist OVC005 73 71     94%   74 29.77 29.76 0    
Jun 06 04:53 N 6 10 Light Rain OVC110 72 71     97%   73 29.74 29.73 0    
Notice The following observation data may not be complete
Jun 06 03:06   1 Heavy Rain and Fog/Mist FEW007 SCT017 OVC027          %         0    
Jun 06 01:53 N 5 10 Cloudy SCT019 BKN040 OVC090 74 71     91%   75 29.74 29.73      
Jun 05 14:11 5 10 Cloudy BKN020 OVC048 80 69     69%   83 29.75